Overview Statistics Trail Chart Weather Telemetry Raw packets
 

This is the latest recevied weather packets stored in our database for station/object ED3YAB-7. If no packets are shown the sender has not sent any weather packets the latest 10 day(s).

<< 12 13 14 15 16 17 18 >>
Time Temp. Humidity Pressure Rain* Wind** Luminosity Snow
1777882649 19.44° C 50% 1017.8 hPa - - - -
1777881449 18.89° C 50% 1017.8 hPa - - - -
1777880256 20° C 50% 1018 hPa - - - -
1777880249 20° C 50% 1018 hPa - - - -
1777879049 18.33° C 53% 1018.2 hPa - - - -
1777877849 18.33° C 55% 1018.5 hPa - - - -
1777876656 16.67° C 59% 1018.4 hPa - - - -
1777876649 16.67° C 59% 1018.4 hPa - - - -
1777875448 15° C 62% 1018.4 hPa - - - -
1777874256 15° C 63% 1018.2 hPa - - - -
1777873048 15° C 64% 1018.1 hPa - - - -
1777871851 14.44° C 65% 1018.4 hPa - - - -
1777870650 14.44° C 67% 1018.4 hPa - - - -
1777869449 13.89° C 69% 1018.5 hPa - - - -
1777868251 13.33° C 69% 1018.6 hPa - - - -
1777867049 13.33° C 70% 1018.7 hPa - - - -
1777865849 13.89° C 69% 1018.6 hPa - - - -
1777864649 13.89° C 67% 1018.6 hPa - - - -
1777863449 13.89° C 68% 1018.7 hPa - - - -
1777862249 13.89° C 67% 1018.7 hPa - - - -
1777861048 14.44° C 67% 1018.6 hPa - - - -
1777859848 13.89° C 68% 1018.8 hPa - - - -
1777858648 14.44° C 68% 1018.9 hPa - - - -
1777857448 13.89° C 69% 1019 hPa - - - -
1777853848 13.89° C 68% 1019.4 hPa - - - -

* Rain since midnight (hover to see other rain measurements)
** Current wind speed in m/s (hover to see current wind gust speed)